Torna al catalogo

STARLINK-31955

AttivoComunicazioniVLEO
NORAD 59939·PAYLOAD·🇺🇸 United States

Lanciato Jun 1, 2024 da Cape Canaveral Space Force Station

Loading…

Prossimi Passaggi (prossime 24 ore)

TLE

AggiornatoSource: CelesTrak SupGP

Epoca: Sep 14, 2026, 21:11 UTC

1 59939C 24106T   26257.88312500 -.00006138  00000+0 -21431-3 0  2577
2 59939  43.0041 343.6135 0002858 323.1823 357.9363 15.28775092    12

Traccia STARLINK-31955 in tempo reale con AllMySat

Download on the App Store